| time (UTC) | temp F | wind direction | speed MPH | gust MPH | rain 1hr in | rain 24hr in | rain mn in | humidity % | barometer mb |
| 20260504192001 | 76 | 342 | 2.0 | 3.0 | 0.00 | 0.00 | 0.00 | 26 | 1017.1 |
| 20260504191200 | 76 | 242 | 2.0 | 4.0 | 0.00 | 0.00 | 0.00 | 29 | 1017.2 |
| 20260504190400 | 75 | 114 | 0.0 | 1.0 | 0.00 | 0.00 | 0.00 | 30 | 1017.3 |
| 20260504184759 | 75 | 274 | 1.0 | 4.0 | 0.00 | 0.00 | 0.00 | 30 | 1017.7 |
| 20260504183959 | 75 | 197 | 0.0 | 3.0 | 0.00 | 0.00 | 0.00 | 29 | 1017.8 |
| 20260504183159 | 75 | 346 | 1.0 | 3.0 | 0.00 | 0.00 | 0.00 | 28 | 1017.8 |
| 20260504182358 | 75 | 6 | 0.0 | 4.0 | 0.00 | 0.00 | 0.00 | 29 | 1018.0 |
| 20260504181559 | 74 | 33 | 1.0 | 5.0 | 0.00 | 0.00 | 0.00 | 27 | 1018.0 |
| 20260504180800 | 74 | 285 | 0.0 | 3.0 | 0.00 | 0.00 | 0.00 | 28 | 1018.1 |
| 20260504175201 | 74 | 291 | 1.0 | 3.0 | 0.00 | 0.00 | 0.00 | 28 | 1018.3 |
| 20260504173600 | 73 | 267 | 0.0 | 3.0 | 0.00 | 0.00 | 0.00 | 30 | 1018.5 |
| 20260504172802 | 73 | 354 | 1.0 | 3.0 | 0.00 | 0.00 | 0.00 | 29 | 1018.5 |
| 20260504170401 | 73 | 75 | 0.0 | 2.0 | 0.00 | 0.00 | 0.00 | 34 | 1018.9 |
| 20260504150400 | 71 | 155 | 0.0 | 2.0 | 0.00 | 0.00 | 0.00 | 36 | 1020.0 |
| 20260504130359 | 50 | 246 | 0.0 | 0.0 | 0.00 | 0.00 | 0.00 | 73 | 1020.1 |
| 20260504110359 | 39 | 246 | 0.0 | 0.0 | 0.00 | 0.00 | 0.00 | 78 | 1019.6 |
| 20260504081558 | 41 | 246 | 0.0 | 0.0 | 0.00 | 0.00 | 0.00 | 80 | 1019.5 |
| 20260504080758 | 41 | 246 | 0.0 | 0.0 | 0.00 | 0.00 | 0.00 | 81 | 1019.5 |
| 20260504070359 | 42 | 246 | 0.0 | 0.0 | 0.00 | 0.00 | 0.00 | 82 | 1019.7 |
| 20260504050358 | 44 | 246 | 0.0 | 0.0 | 0.00 | 0.00 | 0.00 | 82 | 1020.3 |
| 20260504045602 | 44 | 246 | 0.0 | 0.0 | 0.00 | 0.00 | 0.00 | 82 | 1020.3 |
| 20260504044801 | 44 | 246 | 0.0 | 0.0 | 0.00 | 0.00 | 0.00 | 82 | 1020.3 |
| 20260504044001 | 45 | 246 | 0.0 | 0.0 | 0.00 | 0.00 | 0.00 | 82 | 1020.5 |
| 20260504043202 | 45 | 246 | 0.0 | 0.0 | 0.00 | 0.00 | 0.00 | 82 | 1020.4 |
| 20260504042401 | 45 | 246 | 0.0 | 0.0 | 0.00 | 0.00 | 0.00 | 82 | 1020.4 |
| 20260504041601 | 45 | 246 | 0.0 | 0.0 | 0.00 | 0.00 | 0.00 | 82 | 1020.3 |
| 20260504040801 | 46 | 246 | 0.0 | 0.0 | 0.00 | 0.00 | 0.00 | 81 | 1020.3 |
| 20260504040006 | 46 | 246 | 0.0 | 0.0 | 0.00 | 0.00 | 0.00 | 80 | 1020.2 |
| 20260504035201 | 46 | 246 | 0.0 | 0.0 | 0.00 | 0.00 | 0.00 | 80 | 1020.4 |
| 20260504033600 | 47 | 246 | 0.0 | 0.0 | 0.00 | 0.00 | 0.00 | 80 | 1020.4 |
| 20260504031201 | 48 | 246 | 0.0 | 0.0 | 0.00 | 0.00 | 0.00 | 76 | 1020.4 |
| 20260504030400 | 48 | 246 | 0.0 | 0.0 | 0.00 | 0.00 | 0.00 | 76 | 1020.4 |
| 20260504025600 | 49 | 246 | 0.0 | 0.0 | 0.00 | 0.00 | 0.00 | 74 | 1020.2 |
| 20260504024800 | 49 | 245 | 0.0 | 0.0 | 0.00 | 0.00 | 0.00 | 74 | 1020.2 |
| 20260504024000 | 50 | 246 | 0.0 | 0.0 | 0.00 | 0.00 | 0.00 | 73 | 1020.3 |
| 20260504023159 | 50 | 247 | 0.0 | 0.0 | 0.00 | 0.00 | 0.00 | 72 | 1020.1 |
| 20260504022359 | 50 | 246 | 0.0 | 0.0 | 0.00 | 0.00 | 0.00 | 70 | 1020.0 |
| 20260504021600 | 51 | 246 | 0.0 | 0.0 | 0.00 | 0.00 | 0.00 | 68 | 1019.9 |
| 20260504020759 | 51 | 247 | 0.0 | 0.0 | 0.00 | 0.00 | 0.00 | 68 | 1019.9 |
| 20260504015201 | 52 | 246 | 0.0 | 0.0 | 0.00 | 0.00 | 0.00 | 65 | 1019.5 |
| 20260504013601 | 53 | 247 | 0.0 | 0.0 | 0.00 | 0.00 | 0.00 | 61 | 1019.5 |
| 20260504012801 | 54 | 247 | 0.0 | 0.0 | 0.00 | 0.00 | 0.00 | 60 | 1019.2 |
| 20260504011200 | 56 | 246 | 0.0 | 0.0 | 0.00 | 0.00 | 0.00 | 55 | 1019.1 |
| 20260504010401 | 57 | 247 | 0.0 | 0.0 | 0.00 | 0.00 | 0.00 | 52 | 1018.9 |
| 20260504005600 | 58 | 246 | 0.0 | 0.0 | 0.00 | 0.00 | 0.00 | 51 | 1018.9 |
| 20260504004759 | 59 | 246 | 0.0 | 0.0 | 0.00 | 0.00 | 0.00 | 48 | 1018.9 |
| 20260504003159 | 61 | 246 | 0.0 | 0.0 | 0.00 | 0.00 | 0.00 | 45 | 1018.8 |
| 20260504001559 | 63 | 246 | 0.0 | 0.0 | 0.00 | 0.00 | 0.00 | 41 | 1018.7 |
| 20260503235159 | 66 | 267 | 0.0 | 0.0 | 0.00 | 0.00 | 0.00 | 35 | 1018.6 |
| 20260503234400 | 67 | 267 | 0.0 | 1.0 | 0.00 | 0.00 | 0.00 | 34 | 1018.7 |
| 20260503233559 | 68 | 273 | 0.0 | 1.0 | 0.00 | 0.00 | 0.00 | 32 | 1018.6 |
| 20260503232800 | 69 | 308 | 0.0 | 2.0 | 0.00 | 0.00 | 0.00 | 31 | 1018.5 |
| 20260503232000 | 70 | 270 | 0.0 | 4.0 | 0.00 | 0.00 | 0.00 | 30 | 1018.6 |
| 20260503231159 | 72 | 32 | 1.0 | 4.0 | 0.00 | 0.00 | 0.00 | 26 | 1018.6 |
| 20260503230400 | 73 | 337 | 0.0 | 1.0 | 0.00 | 0.00 | 0.00 | 25 | 1018.7 |
| 20260503225601 | 73 | 15 | 0.0 | 2.0 | 0.00 | 0.00 | 0.00 | 28 | 1018.6 |
| 20260503224801 | 73 | 284 | 1.0 | 2.0 | 0.00 | 0.00 | 0.00 | 27 | 1018.6 |
| 20260503224001 | 73 | 228 | 1.0 | 3.0 | 0.00 | 0.00 | 0.00 | 27 | 1018.6 |
| 20260503223200 | 72 | 228 | 0.0 | 2.0 | 0.00 | 0.00 | 0.00 | 29 | 1018.6 |
| 20260503222400 | 72 | 294 | 0.0 | 2.0 | 0.00 | 0.00 | 0.00 | 30 | 1018.7 |
| 20260503221601 | 72 | 90 | 0.0 | 3.0 | 0.00 | 0.00 | 0.00 | 26 | 1018.7 |
| 20260503220800 | 73 | 287 | 1.0 | 3.0 | 0.00 | 0.00 | 0.00 | 27 | 1018.7 |
| 20260503220004 | 72 | 277 | 1.0 | 2.0 | 0.00 | 0.00 | 0.00 | 27 | 1018.9 |
| 20260503215159 | 72 | 285 | 0.0 | 4.0 | 0.00 | 0.00 | 0.00 | 29 | 1018.9 |
| 20260503214401 | 72 | 245 | 0.0 | 5.0 | 0.00 | 0.00 | 0.00 | 29 | 1018.9 |
| 20260503213600 | 71 | 278 | 0.0 | 4.0 | 0.00 | 0.00 | 0.00 | 27 | 1018.9 |
| 20260503212801 | 72 | 262 | 1.0 | 4.0 | 0.00 | 0.00 | 0.00 | 25 | 1019.0 |
| 20260503212001 | 72 | 301 | 1.0 | 4.0 | 0.00 | 0.00 | 0.00 | 27 | 1019.1 |
| 20260503211201 | 71 | 280 | 1.0 | 4.0 | 0.00 | 0.00 | 0.00 | 26 | 1019.1 |
| 20260503205559 | 71 | 274 | 1.0 | 5.0 | 0.00 | 0.00 | 0.00 | 27 | 1019.2 |
| 20260503204000 | 71 | 293 | 1.0 | 5.0 | 0.00 | 0.00 | 0.00 | 26 | 1019.4 |
| 20260503203200 | 71 | 327 | 2.0 | 9.0 | 0.00 | 0.00 | 0.00 | 27 | 1019.5 |
| 20260503202359 | 70 | 249 | 1.0 | 5.0 | 0.00 | 0.00 | 0.00 | 29 | 1019.5 |
| 20260503201559 | 71 | 131 | 1.0 | 5.0 | 0.00 | 0.00 | 0.00 | 28 | 1019.7 |
| 20260503200759 | 70 | 287 | 1.0 | 4.0 | 0.00 | 0.00 | 0.00 | 28 | 1019.8 |
| 20260503200004 | 70 | 29 | 1.0 | 2.0 | 0.00 | 0.00 | 0.00 | 28 | 1019.8 |
| 20260503195201 | 69 | 96 | 1.0 | 6.0 | 0.00 | 0.00 | 0.00 | 28 | 1019.9 |
| 20260503193601 | 69 | 301 | 1.0 | 6.0 | 0.00 | 0.00 | 0.00 | 30 | 1020.2 |
| 20260503192801 | 69 | 156 | 1.0 | 3.0 | 0.00 | 0.00 | 0.00 | 30 | 1020.1 |